Weather History for Shelbyville, IN

Change the Weather History Date:

Thursday, March 15, 2012

  Actual Average Record
Temperature  
Mean Temperature 71 °F 42 °F  
Max Temperature 82 °F 51 °F 82 °F (2012)
Min Temperature 59 °F 32 °F 21 °F (1999)
Degree Days  
Heating Degree Days 0 24  
Month to date heating degree days 238 396  
Since 1 July heating degree days 3716 4559  
Cooling Degree Days 6 0  
Month to date cooling degree days 6 0  
Year to date cooling degree days 6 0  
Growing Degree Days 20 (Base 50)    
Moisture  
Dew Point 57 °F    
Average Humidity 68    
Maximum Humidity 90    
Minimum Humidity 45    
Precipitation  
Precipitation 0.00 in 0.11 in 1.02 in (2007)
Month to date precipitation 1.06 1.36  
Year to date precipitation 5.70 6.11  
Sea Level Pressure  
Sea Level Pressure 30.06 in    
Wind  
Wind Speed 11 mph (SSW)    
Max Wind Speed 28 mph    
Max Gust Speed 36 mph    
Visibility 10 miles    
Events Thunderstorm    
T = Trace of Precipitation, MM = Missing Value Source: NWS Daily Summary

Daily Weather History Graph

Daily Weather History Graph

Search for Another Location

Airport:

Trip Planner

Search our weather history database for the weather conditions in past years. The results will help you decide how hot, cold, wet, or windy it might be!

Date:

Astronomy

Mar. 15, 2012 Rise Set
Actual Time 7:53 AM EDT 7:50 PM EDT
Civil Twilight 7:27 AM EDT 8:17 PM EDT
Nautical Twilight 6:55 AM EDT 8:48 PM EDT
Astronomical Twilight 6:24 AM EDT 9:20 PM EDT
Moon 3:19 AM EDT (3/15) 1:08 PM EDT (3/15)
Length of Visible Light 12h 50m
Length of Day
11h 56m
Last Quarter, 43% of the Moon is Illuminated
Mar 15
Last Quarter
Mar 22
New
Mar 30
First Quarter
Apr 6
Full
Apr 13
Last Quarter

Hourly Weather History & Observations

Time (EDT) Temp. Heat Index Dew Point Humidity Pressure Visibility Wind Dir Wind Speed Gust Speed Precip Events Conditions
12:53 AM 64.9 °F - 54.0 °F 68% 30.05 in 10.0 mi South 8.1 mph - N/A   Clear
1:53 AM 66.0 °F - 54.0 °F 65% 30.05 in 10.0 mi South 10.4 mph - N/A   Clear
2:53 AM 64.0 °F - 54.0 °F 70% 30.05 in 10.0 mi South 10.4 mph - N/A   Clear
3:53 AM 64.0 °F - 55.0 °F 73% 30.04 in 10.0 mi South 10.4 mph - N/A   Clear
4:53 AM 63.0 °F - 55.0 °F 75% 30.04 in 10.0 mi South 10.4 mph - N/A   Clear
5:53 AM 63.0 °F - 55.0 °F 75% 30.04 in 10.0 mi South 10.4 mph - N/A   Clear
6:53 AM 62.1 °F - 55.0 °F 78% 30.05 in 10.0 mi South 9.2 mph - N/A   Partly Cloudy
7:53 AM 60.1 °F - 55.0 °F 83% 30.07 in 10.0 mi SSW 9.2 mph - N/A   Mostly Cloudy
8:53 AM 61.0 °F - 57.9 °F 90% 30.10 in 9.0 mi SSW 4.6 mph - N/A   Scattered Clouds
9:53 AM 66.0 °F - 61.0 °F 84% 30.10 in 10.0 mi SSW 4.6 mph - N/A   Mostly Cloudy
10:53 AM 69.1 °F - 61.0 °F 75% 30.09 in 10.0 mi WSW 11.5 mph - N/A   Clear
11:53 AM 72.0 °F - 62.1 °F 71% 30.09 in 10.0 mi SW 10.4 mph - N/A   Scattered Clouds
12:53 PM 75.0 °F - 61.0 °F 62% 30.08 in 10.0 mi SSW 13.8 mph 18.4 mph N/A   Clear
1:53 PM 79.0 °F - 61.0 °F 54% 30.06 in 10.0 mi SW 13.8 mph - N/A   Partly Cloudy
2:53 PM 79.0 °F - 57.9 °F 48% 30.04 in 10.0 mi SW 15.0 mph 23.0 mph N/A   Partly Cloudy
3:53 PM 81.0 °F 81.0 °F 57.0 °F 44% 30.02 in 10.0 mi WSW 16.1 mph 23.0 mph N/A   Partly Cloudy
4:53 PM 77.0 °F - 57.0 °F 50% 30.02 in 10.0 mi West 13.8 mph 21.9 mph N/A   Partly Cloudy
5:34 PM 69.8 °F - 55.4 °F 60% 30.04 in 10.0 mi WSW 17.3 mph 28.8 mph N/A Thunderstorm Scattered Clouds
5:53 PM 69.1 °F - 57.9 °F 68% 30.04 in 10.0 mi SW 12.7 mph - N/A Thunderstorm Partly Cloudy
6:04 PM 68.0 °F - 57.2 °F 68% 30.04 in 10.0 mi SW 11.5 mph - N/A   Partly Cloudy
6:53 PM 68.0 °F - 55.9 °F 65% 30.03 in 10.0 mi SSW 11.5 mph - N/A   Clear
7:53 PM 66.0 °F - 54.0 °F 65% 30.04 in 10.0 mi WSW 9.2 mph - N/A   Overcast
8:53 PM 63.0 °F - 54.0 °F 72% 30.08 in 10.0 mi South 9.2 mph - N/A   Mostly Cloudy
9:53 PM 62.1 °F - 54.0 °F 75% 30.09 in 10.0 mi South 11.5 mph - N/A   Clear
10:53 PM 61.0 °F - 55.0 °F 81% 30.09 in 10.0 mi South 11.5 mph - N/A   Mostly Cloudy
11:53 PM 61.0 °F - 55.0 °F 81% 30.09 in 10.0 mi SSE 11.5 mph - N/A   Mostly Cloudy